Location: Haliburton Scout Reserve
(45.0900°N, 78.3200°W)
Time: 11:26:45
(UTC-05:00)

N. Korean satellite - Pass Details

Date: 30 November 2021
Orbit: 447 x 491 km, 97.3° (Epoch: 23 January)

Event Time Altitude Azimuth Distance (km) Brightness Sun altitude
Rises 17:02:35 0° 184° (S) 2,544 10.7 -5.4°
Reaches altitude 10° 17:04:45 10° 192° (SSW) 1,661 9.8 -5.8°
Maximum altitude 17:08:06 38° 262° (W) 750 8.3 -6.3°
Drops below altitude 10° 17:11:26 10° 332° (NNW) 1,650 9.3 -6.8°
Sets 17:13:35 0° 340° (NNW) 2,524 10.2 -7.2°
